This is the latest recevied weather packets stored in our database for station/object KD8JAM. If no packets are shown the sender has not sent any weather packets the latest 10 day(s).
| Time | Temp. | Humidity | Pressure | Rain* | Wind** | Luminosity | Snow |
|---|---|---|---|---|---|---|---|
| 1778002642 | 1.11° C | 85% | 1008.1 hPa | 0 mm | - | 129 W/m² | - |
| 1778002339 | 0.56° C | 85% | 1007.7 hPa | 0 mm | - | 118 W/m² | - |
| 1778002036 | 0.56° C | 85% | 1007.6 hPa | 0 mm | - | 133 W/m² | - |
| 1778001733 | 0.56° C | 85% | 1007.6 hPa | 0 mm | - | 139 W/m² | - |
| 1778001433 | 0.56° C | 85% | 1007.7 hPa | 0 mm | - | 117 W/m² | - |
| 1778001131 | 1.11° C | 85% | 1007.7 hPa | 0 mm | - | 122 W/m² | - |
| 1778000827 | 1.11° C | 84% | 1007.7 hPa | 0 mm | - | 111 W/m² | - |
| 1778000524 | 1.11° C | 83% | 1007.2 hPa | 0 mm | - | 140 W/m² | - |
| 1778000224 | 1.11° C | 84% | 1007.4 hPa | 0 mm | - | 145 W/m² | - |
| 1777999920 | 1.67° C | 82% | 1007.4 hPa | 0 mm | - | 157 W/m² | - |
| 1777999616 | 1.67° C | 83% | 1007.5 hPa | 0 mm | - | 224 W/m² | - |
| 1777999313 | 1.67° C | 83% | 1007.3 hPa | 0 mm | - | 282 W/m² | - |
| 1777999012 | 1.11° C | 86% | 1007.2 hPa | 0 mm | - | 248 W/m² | - |
| 1777998709 | 1.11° C | 89% | 1007.3 hPa | 0 mm | - | 135 W/m² | - |
| 1777998407 | 1.11° C | 89% | 1007.3 hPa | 0 mm | - | 119 W/m² | - |
| 1777998104 | 1.11° C | 89% | 1007 hPa | 0 mm | - | 106 W/m² | - |
| 1777997801 | 1.11° C | 89% | 1007.1 hPa | 0 mm | - | 96 W/m² | - |
| 1777997498 | 1.11° C | 90% | 1007 hPa | 0 mm | - | 88 W/m² | - |
| 1777997196 | 1.11° C | 89% | 1006.3 hPa | 0 mm | - | 116 W/m² | - |
| 1777996893 | 1.11° C | 89% | 1006.7 hPa | 0 mm | - | 136 W/m² | - |
| 1777996589 | 1.11° C | 88% | 1006.9 hPa | 0 mm | - | 140 W/m² | - |
| 1777996285 | 1.11° C | 88% | 1006.8 hPa | 0 mm | - | 140 W/m² | - |
| 1777995981 | 1.11° C | 88% | 1006.8 hPa | 0 mm | - | 91 W/m² | - |
| 1777995678 | 1.11° C | 88% | 1006.7 hPa | 0 mm | - | 92 W/m² | - |
| 1777995375 | 1.11° C | 87% | 1006.7 hPa | 0 mm | - | 102 W/m² | - |
* Rain latest hour (hover to see other rain measurements)
** Current wind speed in m/s (hover to see current wind gust speed)